User: anonymous   Login
Location: Lynch Observatory
(39.9540°N, 75.1861°W)
Time: 04:48:23
(UTC-04:00)
Language:

COSMOS 2251 DEB - Orbit

View from above orbital plane
View from above orbital plane
View from above satellite
View from above satellite

Ground track
Ground track

The orbit data is extracted from the following two-line orbital elements,

1 38190U 93036BSE 24205.93237582  .00027447  00000-0  42766-2 0  9995
2 38190  74.0410 298.8625 0013180  78.6390 281.6263 14.72772904675879
Epoch (UTC): 23 July 2024 22:22:37
Eccentricity: 0.0013180
inclination: 74.0410°
perigee height: 643 km
apogee height: 661 km
right ascension of ascending node: 298.8625°
argument of perigee: 78.6390°
revolutions per day: 14.72772904
mean anomaly at epoch: 281.6263°
orbit number at epoch: 67587

The dashed part of the orbit path shows where the satellite is in the earth's shadow,  

DLR